Date String (YYYY-MM-DD hh:mm:ss) UTC,Instrument flags,absolute air pressure of the measurement (hPa),sample flow rate (lpm),inlet stack bypass flow (lpm),air temperature of the measurement (°C),ambient temperature measured by the external sensor (°C),aerosol sample conditioner tube jacket temperature (°C),OPC LED temperature (°C),internal box temperature (°C),relative humidity of the measurement (%),span deviation,mass concentration of particles derived from Lorenz-Mie calculation of OPC scattering (μg/m³),mass concentration of particles derived from Lorenz-Mie calculation of OPC scattering (μg/m³),mass concentration of particles derived from Lorenz-Mie calculation of OPC scattering (μg/m³)
DateTimeUTC,F1_M11,P_M11,Q1_M11,Q2_M11,T1_M11,T2_M11,T3_M11,T4_M11,T5_M11,U1_M11,ZSPAN_M11,X0_M11,X2_M11,X1_M11
2024-02-19 18:00:00,SystemResetWarning,0827.3,5.00,000.00,020.6,020.2,000.0,028.8,022.4,12.0,0000.0,0006.54,0001.18,0000.81
2024-02-19 18:01:00,SystemResetWarning,0827.4,5.00,000.00,020.6,020.2,000.0,028.8,022.4,12.4,0000.0,0006.09,0001.17,0000.81
2024-02-19 18:02:00,SystemResetWarning,0827.3,5.00,000.00,020.6,020.2,000.0,028.8,022.4,12.2,0000.0,0006.11,0001.17,0000.82
2024-02-19 18:03:00,SystemResetWarning,0827.4,5.01,000.00,020.6,020.2,000.0,028.8,022.4,12.4,0000.0,0006.17,0001.19,0000.82
2024-02-19 18:04:00,SystemResetWarning,0827.3,5.01,000.00,020.6,020.2,000.0,028.9,022.4,12.2,0000.0,0005.88,0001.19,0000.82
2024-02-19 18:05:00,SystemResetWarning,0827.4,5.00,000.00,020.6,020.2,000.0,028.9,022.4,12.5,0000.0,0005.63,0001.18,0000.82
2024-02-19 18:06:00,SystemResetWarning,0827.4,5.00,000.00,020.7,020.2,000.0,028.9,022.4,12.4,0000.0,0005.28,0001.14,0000.82
2024-02-19 18:07:00,SystemResetWarning,0827.4,5.00,000.00,020.7,020.2,000.0,028.9,022.4,12.2,0000.0,0003.41,0001.11,0000.82
2024-02-19 18:08:00,SystemResetWarning,0827.4,5.00,000.00,020.7,020.3,000.0,028.9,022.5,12.2,0000.0,0003.03,0001.10,0000.84
2024-02-19 18:09:00,SystemResetWarning,0827.4,5.00,000.00,020.7,020.3,000.0,028.9,022.5,12.0,0000.0,0003.17,0001.12,0000.85
2024-02-19 18:10:00,SystemResetWarning,0827.4,5.00,000.00,020.7,020.3,000.0,028.9,022.5,12.4,0000.0,0003.37,0001.14,0000.85
2024-02-19 18:11:00,SystemResetWarning,0827.4,4.99,000.00,020.7,020.3,000.0,028.9,022.5,12.4,0000.0,0003.61,0001.15,0000.86
2024-02-19 18:12:00,SystemResetWarning,0827.4,4.99,000.00,020.7,020.3,000.0,029.0,022.5,12.8,0000.0,0003.88,0001.17,0000.86
2024-02-19 18:13:00,SystemResetWarning,0827.3,5.00,000.00,020.8,020.3,000.0,029.0,022.5,13.0,0000.0,0004.48,0001.22,0000.87
2024-02-19 18:14:00,SystemResetWarning,0827.4,5.00,000.00,020.8,020.3,000.0,029.0,022.5,12.9,0000.0,0004.77,0001.22,0000.88
2024-02-19 18:15:00,SystemResetWarning,0827.4,5.00,000.00,020.8,020.3,000.0,029.0,022.6,12.6,0000.0,0005.66,0001.23,0000.90
2024-02-19 18:16:00,SystemResetWarning,0827.4,5.00,000.00,020.8,020.4,000.0,029.0,022.6,12.5,0000.0,0005.58,0001.23,0000.92
2024-02-19 18:17:00,SystemResetWarning,0827.4,5.01,000.00,020.8,020.4,000.0,029.0,022.6,12.3,0000.0,0005.57,0001.25,0000.94
2024-02-19 18:18:00,SystemResetWarning,0827.4,5.00,000.00,020.8,020.4,000.0,029.0,022.6,12.3,0000.0,0005.68,0001.31,0000.95
2024-02-19 18:19:00,SystemResetWarning,0827.4,5.00,000.00,020.8,020.4,000.0,029.1,022.6,12.1,0000.0,0005.59,0001.33,0000.96
2024-02-19 18:20:00,SystemResetWarning,0827.4,5.01,000.00,020.9,020.4,000.0,029.1,022.6,12.3,0000.0,0004.83,0001.33,0000.96
2024-02-19 18:21:00,SystemResetWarning,0827.3,5.00,000.00,020.9,020.4,000.0,029.1,022.7,12.7,0000.0,0004.48,0001.34,0000.96
2024-02-19 18:22:00,SystemResetWarning,0827.3,5.00,000.00,020.9,020.5,000.0,029.1,022.7,12.6,0000.0,0004.25,0001.37,0000.98
2024-02-19 18:23:00,SystemResetWarning,0827.3,5.00,000.00,020.9,020.5,000.0,029.1,022.7,12.3,0000.0,0004.54,0001.41,0000.99
2024-02-19 18:24:00,SystemResetWarning,0827.3,5.00,000.00,020.9,020.5,000.0,029.1,022.7,12.7,0000.0,0004.35,0001.42,0001.01
2024-02-19 18:25:00,SystemResetWarning,0827.3,5.00,000.00,020.9,020.5,000.0,029.1,022.7,12.5,0000.0,0004.32,0001.45,0001.03
2024-02-19 18:26:00,SystemResetWarning,0827.4,5.00,000.00,020.9,020.5,000.0,029.1,022.7,12.7,0000.0,0003.38,0001.51,0001.04
2024-02-19 18:27:00,SystemResetWarning,0827.4,5.00,000.00,020.9,020.5,000.0,029.2,022.7,12.2,0000.0,0003.52,0001.55,0001.05
2024-02-19 18:28:00,SystemResetWarning,0827.3,5.00,000.00,021.0,020.5,000.0,029.2,022.7,13.9,0000.0,0003.63,0001.60,0001.07
2024-02-19 18:29:00,SystemResetWarning,0827.3,5.00,000.00,021.0,020.5,000.0,029.2,022.7,14.6,0000.0,0004.30,0001.62,0001.08
2024-02-19 18:30:00,SystemResetWarning,0827.3,5.00,000.00,021.0,020.5,000.0,029.2,022.7,14.5,0000.0,0005.84,0001.66,0001.09
2024-02-19 18:31:00,SystemResetWarning,0827.3,5.00,000.00,021.0,020.6,000.0,029.2,022.8,14.0,0000.0,0006.03,0001.71,0001.10
2024-02-19 18:32:00,SystemResetWarning,0827.2,5.00,000.00,021.0,020.6,000.0,029.2,022.8,14.0,0000.0,0006.02,0001.72,0001.12
2024-02-19 18:33:00,SystemResetWarning,0827.3,5.00,000.00,021.0,020.6,000.0,029.2,022.8,13.8,0000.0,0005.87,0001.72,0001.13
2024-02-19 18:34:00,SystemResetWarning,0827.2,5.00,000.00,021.0,020.6,000.0,029.3,022.8,13.6,0000.0,0005.56,0001.72,0001.14
2024-02-19 18:35:00,SystemResetWarning,0827.2,5.00,000.00,021.0,020.6,000.0,029.3,022.8,14.3,0000.0,0005.17,0001.73,0001.14
2024-02-19 18:36:00,SystemResetWarning,0827.2,5.00,000.00,021.1,020.6,000.0,029.3,022.9,14.8,0000.0,0005.33,0001.78,0001.14
2024-02-19 18:37:00,SystemResetWarning,0827.2,5.00,000.00,021.1,020.6,000.0,029.3,022.9,14.9,0000.0,0005.59,0001.84,0001.20
2024-02-19 18:38:00,SystemResetWarning,0827.3,5.00,000.00,021.1,020.6,000.0,029.3,022.9,14.8,0000.0,0005.71,0001.88,0001.27
2024-02-19 18:39:00,SystemResetWarning,0827.2,5.00,000.00,021.1,020.7,000.0,029.3,022.9,14.7,0000.0,0006.32,0001.97,0001.34
2024-02-19 18:40:00,SystemResetWarning,0827.3,5.00,000.00,021.1,020.7,000.0,029.3,022.9,14.7,0000.0,0007.55,0002.02,0001.41
2024-02-19 18:41:00,SystemResetWarning,0827.3,5.00,000.00,021.1,020.7,000.0,029.4,022.9,14.3,0000.0,0006.41,0002.06,0001.47
2024-02-19 18:42:00,SystemResetWarning,0827.3,5.00,000.00,021.1,020.7,000.0,029.4,022.9,14.5,0000.0,0006.80,0002.11,0001.54
2024-02-19 18:43:00,SystemResetWarning,0827.3,5.01,000.00,021.2,020.7,000.0,029.4,022.9,14.3,0000.0,0007.27,0002.22,0001.62
2024-02-19 18:44:00,SystemResetWarning,0827.3,5.00,000.00,021.2,020.7,000.0,029.4,023.0,13.9,0000.0,0007.43,0002.34,0001.69
2024-02-19 18:45:00,SystemResetWarning,0827.3,5.00,000.00,021.2,020.7,000.0,029.4,023.0,14.3,0000.0,0007.56,0002.46,0001.76
2024-02-19 18:46:00,SystemResetWarning,0827.4,5.00,000.00,021.2,020.8,000.0,029.4,023.0,14.6,0000.0,0007.77,0002.58,0001.86
2024-02-19 18:47:00,SystemResetWarning,0827.4,5.00,000.00,021.2,020.8,000.0,029.4,023.0,13.9,0000.0,0007.86,0002.67,0001.93
2024-02-19 18:48:00,SystemResetWarning,0827.4,5.00,000.00,021.2,020.8,000.0,029.5,023.0,13.3,0000.0,0007.88,0002.70,0001.96
2024-02-19 18:49:00,SystemResetWarning,0827.3,5.00,000.00,021.2,020.8,000.0,029.5,023.0,13.8,0000.0,0007.95,0002.79,0001.96
2024-02-19 18:50:00,SystemResetWarning,0827.3,5.00,000.00,021.2,020.8,000.0,029.5,023.0,13.6,0000.0,0007.70,0002.80,0001.96
2024-02-19 18:51:00,SystemResetWarning,0827.3,5.00,000.00,021.3,020.8,000.0,029.5,023.0,13.3,0000.0,0006.77,0002.83,0001.97
2024-02-19 18:52:00,SystemResetWarning,0827.4,5.00,000.00,021.3,020.8,000.0,029.5,023.0,13.4,0000.0,0006.48,0002.91,0001.99
2024-02-19 18:53:00,SystemResetWarning,0827.3,5.01,000.00,021.3,020.8,000.0,029.5,023.1,13.5,0000.0,0006.72,0002.92,0002.00
2024-02-19 18:54:00,SystemResetWarning,0827.3,4.99,000.00,021.3,020.8,000.0,029.5,023.1,13.3,0000.0,0006.91,0002.85,0001.98
2024-02-19 18:55:00,SystemResetWarning,0827.2,4.99,000.00,021.3,020.9,000.0,029.6,023.1,13.5,0000.0,0006.79,0002.79,0001.95
2024-02-19 18:56:00,SystemResetWarning,0827.2,5.00,000.00,021.3,020.9,000.0,029.6,023.1,13.2,0000.0,0006.67,0002.73,0001.92
2024-02-19 18:57:00,SystemResetWarning,0827.2,5.01,000.00,021.3,020.9,000.0,029.6,023.1,13.2,0000.0,0006.18,0002.61,0001.88
2024-02-19 18:58:00,SystemResetWarning,0827.2,5.00,000.00,021.3,020.9,000.0,029.6,023.1,13.4,0000.0,0005.99,0002.52,0001.84
2024-02-19 18:59:00,SystemResetWarning,0827.2,5.00,000.00,021.3,020.9,000.0,029.6,023.1,13.5,0000.0,0005.81,0002.47,0001.81
